Starlink 37245

operational
NORAD ID: 68548 Int'l Des: 2026-070 Owner: SPXS Country: US Constellation: starlink
LEOCIRCULAR

About Starlink 37245

Description loading...

Live Position

Loading 3D Globe...

Upcoming Passes

Altitude History

Altitude vs Time

uPlot chart will show altitude changes over time

Two-Line Element Set

1 68548C 26070F 26093.91576389 -.00147980 00000+0 -18181-3 0 931
2 68548 53.1618 259.5161 0008114 286.1104 18.6505 16.07208678 13
Epoch: Apr 3, 2026 • Age: 29 hours

Current Status

Altitude 264.1 km
Velocity 7.75 km/s
Sub-Earth Point 42.69°N, 131.88°E
Launch Date Apr 2, 2026
Age 1 days
Type internet

Technical Details

Classification Payload
Mass 575.00 kg
Dry Mass 530.00 kg
Total Mass 575.00 kg
Length 0.30 m
Diameter 4.10 m
Span 29.00 m
Shape Box + pan
Manufacturer SPXS
Bus Type Starlink V2MO
Phase Status In Orbit
Owner/State SPXS/US

Large Constellations

Loading constellations...